Погода в Новой Федоровке

Россия / Республика Мордовия     54°27′19″N   44°35′18″E
темп.,
°C
ветер,
м/с
пор.,
м/с
влажн.,
%
обл.,
%
осадки,
мм/ч
давл.,
гПа
погр.,
м
8 марта, пн
пн800:00−3юз81694100 1.0 9931039
03:00−5з6119099 1.6 994658
06:00−7зюз7139266 0.1 997620
09:00−8зюз5109164 0.2 999447
12:00−6юз589292 0.1 999604
15:00−4зюз598996 0.9 999960
18:00−7з61388100 0.6 1001514
21:00−11з469470 0.6 100590
9 марта, вт
вт900:00−14з33950 0.0 100729
03:00−16з339818 0.0 100932
06:00−17з339976 0.0 101028
09:00−13зсз249488 0.1 1011217
12:00−10ссз2386100 0.1 1011523
15:00−9с3492100 0.3 1012456
18:00−12ссз3496100 0.4 1013131
21:00−14ссз369697 0.6 1015181
10 марта, ср
ср1000:00−19сз369871 0.0 1016118
03:00−20сз369985 0.1 1018120
06:00−20ссз3797100 0.1 1020248
09:00−20ссз479599 0.1 1021359
12:00−18ссз4690100 0.0 1022598
15:00−17ссз4689100 0.1 1023687
18:00−22ссз3396100 0.0 102441
21:00−25сз349762 0.0 102730
11 марта, чт
чт1100:00−26сз33970 0.0 102732
03:00−26сз33990 0.0 102929
06:00−26зсз34990 0.0 102950
09:00−21зсз47955 0.0 1030233
12:00−16зсз47910 0.0 1029364
15:00−13з589140 0.0 1029431
18:00−15з4995100 0.0 1029198
21:00−17зсз369895 0.0 1031107
12 марта, пт
пт1200:00−19зсз339830 0.0 103233
03:00−21з339922 0.0 103225
06:00−22зюз23990 0.0 103320
09:00−17юз23940 0.0 1033127
12:00−12ю34840 0.0 1031320
15:00−11ю46860 0.0 1030413
18:00−15ю48920 0.0 1028138
21:00−16ю5128548 0.0 1028271